Content
SEND FEEDBACK

Daily
Averages
Monthly
Summary
Germany

LUBECK, GERMANY


Home > Europe > Germany
Elevation: 56 feet     Latitude: 54 00N     Longitude: 011 12E

WEATHER
 
SELECT A DAY
Number of Records: 63,871;   Date Range: 7/3/96 - 10/23/14
 
SHARE

PRINT THIS DATA

[ ← Previous Day ]
WEATHER ALMANAC - JANUARY 20, 2013
[ Next Day → ]
[ °C ]   °F
Weather ElementAverageHighLow
Temperature26.7 °F30.2 °F (6:20 pm)23 °F (8:20 am)
Dewpoint22.3 °F26.6 °F (6:20 pm)17.6 °F (8:20 am)
Humidity83.5 %86 % (9:20 am)80 % (8:20 am)
Barometer29.65 in29.68 in (8:50 am)29.62 in (4:20 pm)
Wind Speed9.1 mph13.8 mph (6:20 pm)
Wind Gust25.3 mph (7:50 pm)
Weather ElementAverage
Visibility6.1 mi
Wind DirectionENE (75 °)

Weather ElementTotal
Precipitation---
Heating Degree Days38.4 (Base 65)
Averaged from 24 records on January 20, 2013
WEATHER CONDITIONS BREAKOUT
WIND DIRECTION BREAKOUT
WEATHER BY HOUR - JANUARY 20, 2013
[ °C ]   °F
Local TimeTemperatureDewpointHumidityBarometerVisibilityWind DirectionWind SpeedGust SpeedPrecipitationEventsConditions
8:20 AM23.0 °F17.6 °F80 %29.65 in6.2 miEast (80°)6.9 mphMostly Cloudy
8:50 AM23.0 °F17.6 °F80 %29.68 in6.2 miENE (60°)5.8 mphMostly Cloudy
9:20 AM23.0 °F19.4 °F86 %29.65 in6.2 miENE (70°)5.8 mphMostly Cloudy
9:50 AM24.8 °F19.4 °F80 %29.68 in6.2 miEast (80°)6.9 mphMostly Cloudy
10:20 AM24.8 °F19.4 °F80 %29.68 in6.2 miEast (80°)8.1 mphMostly Cloudy
10:50 AM24.8 °F19.4 °F80 %29.68 in6.2 miEast (80°)6.9 mphMostly Cloudy
11:20 AM24.8 °F19.4 °F80 %29.68 in6.2 miEast (90°)8.1 mphMostly Cloudy
11:50 AM24.8 °F21.2 °F86 %29.68 in6.2 miENE (70°)8.1 mphMostly Cloudy
12:20 PM26.6 °F21.2 °F80 %29.65 in4.3 miEast (80°)8.1 mphMostly Cloudy
12:50 PM26.6 °F21.2 °F80 %29.65 in6.2 miEast (80°)9.2 mphMostly Cloudy
12:57 PM26.6 °F21.2 °F80 %29.65 in6.2 miEast (80°)10.4 mphMostly Cloudy
1:20 PM26.6 °F23.0 °F86 %29.65 in6.2 miEast (90°)8.1 mphSnowLight Snow
1:50 PM26.6 °F23.0 °F86 %29.65 in6.2 miEast (80°)8.1 mphSnowLight Snow
2:20 PM26.6 °F23.0 °F86 %29.65 in6.2 miENE (70°)5.8 mphMostly Cloudy
2:50 PM26.6 °F23.0 °F86 %29.65 in6.2 miENE (70°)8.1 mphMostly Cloudy
3:20 PM26.6 °F23.0 °F86 %29.65 in6.2 miENE (70°)10.4 mphMostly Cloudy
3:50 PM28.4 °F23.0 °F80 %29.65 in6.2 miENE (70°)10.4 mphMostly Cloudy
4:20 PM28.4 °F24.8 °F86 %29.62 in6.2 miENE (70°)11.5 mphMostly Cloudy
4:50 PM28.4 °F24.8 °F86 %29.62 in6.2 miENE (70°)10.4 mphMostly Cloudy
5:20 PM28.4 °F24.8 °F86 %29.62 in6.2 miENE (70°)10.4 mphMostly Cloudy
6:20 PM30.2 °F26.6 °F86 %29.62 in6.2 miENE (70°)13.8 mphMostly Cloudy
6:50 PM30.2 °F26.6 °F86 %29.65 in6.2 miEast (80°)11.5 mphMostly Cloudy
7:20 PM30.2 °F26.6 °F86 %29.62 in6.2 miENE (70°)12.7 mphMostly Cloudy
7:50 PM30.2 °F26.6 °F86 %29.62 in6.2 miENE (70°)13.8 mph25.3 mphSnowLight Snow
Hourly data recorded from EDHL, located miles away from Lubeck, Germany







STORIES FROM OUR PARTNERS